Change the Weather History Date:

Thursday, March 7, 2013

  Actual Average Record
Temperature  
Mean Temperature 64 °F 67 °F  
Max Temperature 77 °F 78 °F 97 °F (1991)
Min Temperature 50 °F 56 °F 34 °F (1955)
Degree Days  
Heating Degree Days 1 2  
Month to date heating degree days 28 18  
Since 1 July heating degree days 376 586  
Cooling Degree Days 0 4  
Month to date cooling degree days 8 28  
Year to date cooling degree days 202 153  
Growing Degree Days 13 (Base 50)    
Moisture  
Dew Point 58 °F    
Average Humidity 78    
Maximum Humidity 96    
Minimum Humidity 60    
Precipitation  
Precipitation T in 0.04 in 1.05 in (1913)
Month to date precipitation T 0.27  
Year to date precipitation 2.74 2.74  
Sea Level Pressure  
Sea Level Pressure 30.12 in    
Wind  
Wind Speed 14 mph (ESE)    
Max Wind Speed 24 mph    
Max Gust Speed 30 mph    
Visibility 10 miles    
Events      
T = Trace of Precipitation, MM = Missing Value Source: NWS Daily Summary

Daily Weather History Graph

Daily Weather History Graph

Search for Another Location

Airport or City:

Trip Planner

Search our weather history database for the weather conditions in past years. The results will help you decide how hot, cold, wet, or windy it might be!

Date:

Astronomy

Mar. 07, 2013 Rise Set
Actual Time 6:47 AM CST 6:35 PM CST
Civil Twilight 6:24 AM CST 6:58 PM CST
Nautical Twilight 5:58 AM CST 7:25 PM CST
Astronomical Twilight 5:31 AM CST 7:52 PM CST
Moon 3:28 AM CST (3/7) 2:43 PM CST (3/7)
Length of Visible Light 12h 33m
Length of Day
11h 47m
Waning Crescent, 20% of the Moon is Illuminated
Mar 7
Waning Crescent
Mar 11
New
Mar 19
First Quarter
Mar 27
Full
Apr 2
Last Quarter

Hourly Weather History & Observations

Time (CST) Temp. Dew Point Humidity Pressure Visibility Wind Dir Wind Speed Gust Speed Precip Events Conditions
12:52 AM 52.0 °F 46.9 °F 83% 30.19 in 10.0 mi East 4.6 mph - N/A   Clear
1:52 AM 52.0 °F 48.0 °F 86% 30.16 in 10.0 mi East 6.9 mph - N/A   Clear
2:52 AM 52.0 °F 48.0 °F 86% 30.15 in 10.0 mi NE 3.5 mph - N/A   Clear
3:52 AM 51.1 °F 48.0 °F 89% 30.13 in 10.0 mi ENE 4.6 mph - N/A   Clear
4:52 AM 51.1 °F 50.0 °F 96% 30.12 in 10.0 mi East 5.8 mph - N/A   Clear
5:52 AM 53.1 °F 51.1 °F 93% 30.13 in 10.0 mi East 5.8 mph - N/A   Clear
6:18 AM 53.6 °F 51.8 °F 94% 30.12 in 10.0 mi East 8.1 mph - N/A   Mostly Cloudy
6:39 AM 55.4 °F 53.6 °F 94% 30.12 in 10.0 mi East 8.1 mph - N/A   Scattered Clouds
6:52 AM 55.0 °F 53.1 °F 93% 30.13 in 10.0 mi East 6.9 mph - N/A   Partly Cloudy
7:52 AM 61.0 °F 57.0 °F 87% 30.15 in 10.0 mi East 6.9 mph - N/A   Clear
8:52 AM 69.8 °F 59.0 °F 68% 30.16 in 10.0 mi East 13.8 mph - N/A   Clear
9:20 AM 71.6 °F 59.0 °F 64% 30.16 in 10.0 mi ESE 18.4 mph - N/A   Mostly Cloudy
9:52 AM 72.0 °F 59.0 °F 64% 30.17 in 10.0 mi ESE 16.1 mph 23.0 mph N/A   Mostly Cloudy
10:52 AM 75.0 °F 60.1 °F 60% 30.17 in 10.0 mi SE 18.4 mph - N/A   Overcast
11:52 AM 75.0 °F 60.1 °F 60% 30.15 in 10.0 mi ESE 15.0 mph - N/A   Overcast
12:16 PM 75.2 °F 60.8 °F 61% 30.14 in 10.0 mi ESE 18.4 mph - N/A   Overcast
12:52 PM 75.0 °F 60.1 °F 60% 30.12 in 10.0 mi SE 19.6 mph - N/A   Mostly Cloudy
1:52 PM 75.0 °F 60.1 °F 60% 30.09 in 10.0 mi ESE 21.9 mph 27.6 mph N/A   Mostly Cloudy
1:59 PM 75.2 °F 60.8 °F 61% 30.09 in 10.0 mi ESE 21.9 mph 27.6 mph N/A   Mostly Cloudy
2:52 PM 75.0 °F 60.1 °F 60% 30.08 in 10.0 mi SE 19.6 mph - N/A   Overcast
3:52 PM 73.0 °F 61.0 °F 66% 30.07 in 10.0 mi ESE 19.6 mph 28.8 mph N/A   Overcast
4:01 PM 73.4 °F 60.8 °F 65% 30.07 in 10.0 mi SE 23.0 mph 27.6 mph N/A   Overcast
4:16 PM 73.4 °F 60.8 °F 65% 30.07 in 10.0 mi ESE 20.7 mph - N/A   Overcast
4:50 PM 71.6 °F 62.6 °F 73% 30.07 in 10.0 mi ESE 20.7 mph 28.8 mph 0.00 in   Overcast
4:52 PM 72.0 °F 62.1 °F 71% 30.08 in 10.0 mi ESE 21.9 mph 28.8 mph 0.00 in   Overcast
5:08 PM 71.6 °F 60.8 °F 69% 30.08 in 10.0 mi SE 20.7 mph - N/A   Overcast
5:35 PM 71.6 °F 60.8 °F 69% 30.08 in 10.0 mi SE 20.7 mph 26.5 mph N/A   Overcast
5:52 PM 71.1 °F 61.0 °F 70% 30.09 in 10.0 mi ESE 18.4 mph 25.3 mph N/A   Overcast
6:52 PM 70.0 °F 62.1 °F 76% 30.09 in 10.0 mi ESE 18.4 mph - N/A   Overcast
7:06 PM 69.8 °F 62.6 °F 78% 30.09 in 10.0 mi ESE 17.3 mph 25.3 mph N/A   Overcast
7:52 PM 69.1 °F 62.1 °F 78% 30.09 in 10.0 mi SE 17.3 mph - N/A   Scattered Clouds
8:52 PM 69.1 °F 62.1 °F 78% 30.11 in 10.0 mi SE 15.0 mph - N/A   Mostly Cloudy
9:52 PM 68.0 °F 62.1 °F 81% 30.11 in 10.0 mi SE 16.1 mph - N/A   Overcast
10:52 PM 68.0 °F 63.0 °F 84% 30.11 in 10.0 mi SE 15.0 mph - N/A   Mostly Cloudy
11:52 PM 69.1 °F 64.0 °F 84% 30.10 in 10.0 mi SE 18.4 mph - 0.00 in   Overcast